Location: Härggis
(46.9540°N, 8.4897°E)
Time: 03:05:16
(UTC+00:00)

Cosmos 1300 - Pass Details

Date: 27 May 2022
Orbit: 506 x 509 km, 82.5° (Epoch: 26 June)

Event Time Altitude Azimuth Distance (km) Brightness Sun altitude
Rises 00:38:08 0° 345° (NNW) 2,623 7.2 -19.7°
Reaches altitude 10° 00:40:19 10° 340° (NNW) 1,732 6.1 -19.6°
Maximum altitude 00:43:58 47° 266° (W) 676 3.0 -19.4°
Enters shadow 00:44:15 46° 250° (WSW) 686 3.0 -19.4°
